When you browse on this site, cookies collect data to enhance your experience and personalize the content and advertising you see.
Visit our Privacy Policy to learn more. By continuing to use the site, you agree to this use of cookies and data.
  • In Netherlands
  • List of Countries
  • For 7 days
  • Water Temperature
  • Weather Map
  • Weather Widgets
  • user-avatar
    Login

    Hourly Weather Hopor

    Today, 25 January, Saturday

    Time Temperature Precipitation Wind Pressure Humidity
    00:00 -14°C° 0 mm 2 mps 651 mmHg 60%
    01:00 -13°C° 0 mm 2 mps 651 mmHg 56%
    02:00 -13°C° 0 mm 2 mps 651 mmHg 52%
    03:00 -13°C° 0 mm 2 mps 651 mmHg 48%
    04:00 -13°C° 0 mm 2 mps 651 mmHg 46%
    05:00 -12°C° 0 mm 2 mps 651 mmHg 44%
    06:00 -12°C° 0 mm 2 mps 651 mmHg 42%
    07:00 -10°C° 0 mm 2 mps 652 mmHg 45%
    08:00 -8°C° 0 mm 2 mps 652 mmHg 48%
    09:00 -7°C° 0 mm 2 mps 652 mmHg 51%
    10:00 -5°C° 0 mm 2 mps 652 mmHg 50%
    11:00 -2°C° 0 mm 1 mps 653 mmHg 50%
    12:00 0°C° 0 mm 1 mps 653 mmHg 50%
    13:00 0°C° 0 mm 1 mps 652 mmHg 55%
    14:00 +1°C° 0 mm 1 mps 652 mmHg 61%
    15:00 +1°C° 0 mm 1 mps 651 mmHg 66%
    16:00 0°C° 0 mm 1 mps 651 mmHg 64%
    17:00 -1°C° 0 mm 1 mps 651 mmHg 61%
    18:00 -3°C° 0 mm 1 mps 650 mmHg 59%
    19:00 -2°C° 0 mm 1 mps 650 mmHg 58%
    20:00 -2°C° 0 mm 1 mps 650 mmHg 58%
    21:00 -2°C° 0 mm 1 mps 650 mmHg 58%
    22:00 -4°C° 0 mm 2 mps 649 mmHg 58%
    23:00 -4°C° 0 mm 2 mps 649 mmHg 58%

    Tomorrow, 26 January, Sunday

    Time Temperature Precipitation Wind Pressure Humidity
    00:00 -4°C° 0 mm 2 mps 649 mmHg 58%
    01:00 -4°C° 0 mm 2 mps 649 mmHg 56%
    02:00 -4°C° 0 mm 2 mps 649 mmHg 55%
    03:00 -4°C° 0 mm 2 mps 648 mmHg 54%
    04:00 -4°C° 0 mm 2 mps 648 mmHg 54%
    05:00 -4°C° 0 mm 2 mps 648 mmHg 53%
    06:00 -4°C° 0 mm 2 mps 648 mmHg 52%
    07:00 -3°C° 0 mm 2 mps 649 mmHg 54%
    08:00 0°C° 0 mm 1 mps 649 mmHg 55%
    09:00 +1°C° 0 mm 1 mps 650 mmHg 57%
    10:00 +2°C° 0 mm 1 mps 650 mmHg 59%
    11:00 +3°C° 0 mm 1 mps 650 mmHg 61%
    12:00 +4°C° 0 mm 1 mps 650 mmHg 63%
    13:00 +3°C° 0 mm 1 mps 650 mmHg 67%
    14:00 +3°C° 0 mm 1 mps 650 mmHg 72%
    15:00 +2°C° 0 mm 1 mps 650 mmHg 77%
    16:00 +1°C° 0 mm 1 mps 650 mmHg 80%
    17:00 -1°C° 0 mm 1 mps 650 mmHg 83%
    18:00 -4°C° 0 mm 2 mps 650 mmHg 85%
    19:00 -5°C° 0 mm 2 mps 651 mmHg 83%
    20:00 -5°C° 0 mm 2 mps 651 mmHg 81%
    21:00 -5°C° 0 mm 2 mps 651 mmHg 79%
    22:00 -3°C° 0 mm 1 mps 651 mmHg 77%
    23:00 -3°C° 0 mm 1 mps 652 mmHg 74%

    Day after tomorrow, 27 January, Monday

    Time Temperature Precipitation Wind Pressure Humidity
    00:00 -4°C° 0 mm 1 mps 652 mmHg 72%
    01:00 -4°C° 0 mm 1 mps 652 mmHg 72%
    02:00 -4°C° 0 mm 1 mps 652 mmHg 71%
    03:00 -4°C° 0 mm 1 mps 652 mmHg 70%
    04:00 -4°C° 0 mm 1 mps 653 mmHg 70%
    05:00 -4°C° 0 mm 1 mps 653 mmHg 69%
    06:00 -4°C° 0 mm 1 mps 653 mmHg 68%
    07:00 -3°C° 0 mm 1 mps 654 mmHg 68%
    08:00 -2°C° 0 mm 1 mps 654 mmHg 68%
    09:00 -1°C° 0 mm 1 mps 655 mmHg 67%
    10:00 0°C° 0 mm 1 mps 655 mmHg 65%
    11:00 +2°C° 0 mm 1 mps 655 mmHg 63%
    12:00 +3°C° 0 mm 1 mps 655 mmHg 62%
    13:00 +3°C° 0 mm 1 mps 655 mmHg 65%
    14:00 +2°C° 0 mm 0 mps 655 mmHg 69%
    15:00 +2°C° 0 mm 0 mps 654 mmHg 72%
    16:00 +2°C° 0 mm 1 mps 654 mmHg 70%
    17:00 +1°C° 0 mm 1 mps 654 mmHg 68%
    18:00 -2°C° 0 mm 2 mps 653 mmHg 66%
    19:00 -2°C° 0 mm 2 mps 653 mmHg 63%
    20:00 -2°C° 0 mm 2 mps 653 mmHg 59%
    21:00 -2°C° 0 mm 2 mps 653 mmHg 55%
    22:00 -3°C° 0 mm 2 mps 653 mmHg 53%
    23:00 -3°C° 0 mm 2 mps 653 mmHg 52%

    28 January, Tuesday

    Time Temperature Precipitation Wind Pressure Humidity
    00:00 -3°C° 0 mm 2 mps 652 mmHg 50%
    01:00 -3°C° 0 mm 2 mps 652 mmHg 48%
    02:00 -3°C° 0 mm 2 mps 652 mmHg 47%
    03:00 -3°C° 0 mm 2 mps 651 mmHg 46%
    04:00 -3°C° 0 mm 2 mps 651 mmHg 46%
    05:00 -3°C° 0 mm 2 mps 651 mmHg 46%
    06:00 -3°C° 0 mm 2 mps 651 mmHg 46%
    07:00 -2°C° 0 mm 2 mps 651 mmHg 48%
    08:00 -2°C° 0 mm 2 mps 651 mmHg 50%
    09:00 -1°C° 0 mm 2 mps 651 mmHg 52%
    10:00 +2°C° 0 mm 2 mps 651 mmHg 55%
    11:00 +4°C° 0 mm 1 mps 651 mmHg 58%
    12:00 +6°C° 0 mm 1 mps 651 mmHg 61%
    13:00 +6°C° 0 mm 1 mps 651 mmHg 61%
    14:00 +6°C° 0 mm 1 mps 650 mmHg 60%
    15:00 +6°C° 0 mm 1 mps 650 mmHg 60%
    16:00 +3°C° 0 mm 2 mps 649 mmHg 58%
    17:00 +2°C° 0 mm 2 mps 649 mmHg 56%
    18:00 0°C° 0 mm 3 mps 649 mmHg 54%
    19:00 0°C° 0 mm 3 mps 648 mmHg 52%
    20:00 0°C° 0 mm 3 mps 648 mmHg 50%
    21:00 0°C° 0 mm 3 mps 648 mmHg 48%
    22:00 0°C° 0 mm 3 mps 648 mmHg 47%
    23:00 0°C° 0 mm 3 mps 647 mmHg 47%

    29 January, Wednesday

    Time Temperature Precipitation Wind Pressure Humidity
    00:00 0°C° 0 mm 3 mps 647 mmHg 47%
    01:00 0°C° 0 mm 3 mps 647 mmHg 47%
    02:00 0°C° 0 mm 3 mps 647 mmHg 48%
    03:00 0°C° 0 mm 3 mps 646 mmHg 49%
    04:00 0°C° 0 mm 3 mps 646 mmHg 49%
    05:00 0°C° 0 mm 3 mps 646 mmHg 49%
    06:00 0°C° 0 mm 3 mps 646 mmHg 50%
    07:00 +1°C° 0 mm 2 mps 647 mmHg 52%
    08:00 +1°C° 0 mm 2 mps 647 mmHg 54%
    09:00 +2°C° 0 mm 2 mps 647 mmHg 56%
    10:00 +3°C° 0 mm 2 mps 647 mmHg 58%
    11:00 +5°C° 0 mm 1 mps 647 mmHg 60%
    12:00 +6°C° 0 mm 1 mps 648 mmHg 61%
    13:00 +6°C° 0 mm 1 mps 647 mmHg 63%
    14:00 +6°C° 0 mm 1 mps 647 mmHg 65%
    15:00 +5°C° 0 mm 1 mps 647 mmHg 66%
    16:00 +4°C° 0 mm 1 mps 647 mmHg 67%
    17:00 +3°C° 0 mm 1 mps 647 mmHg 67%
    18:00 +2°C° 0 mm 1 mps 647 mmHg 67%
    19:00 +2°C° 0 mm 1 mps 647 mmHg 66%
    20:00 +1°C° 0 mm 2 mps 647 mmHg 64%
    21:00 +1°C° 0 mm 2 mps 648 mmHg 63%
    22:00 -1°C° 0 mm 2 mps 648 mmHg 63%
    23:00 -1°C° 0 mm 2 mps 647 mmHg 63%

    30 January, Thursday

    Time Temperature Precipitation Wind Pressure Humidity
    00:00 -1°C° 0 mm 2 mps 647 mmHg 63%
    01:00 -1°C° 0 mm 2 mps 647 mmHg 64%
    02:00 -2°C° 0 mm 2 mps 647 mmHg 65%
    03:00 -2°C° 0 mm 2 mps 647 mmHg 66%
    04:00 -2°C° 0 mm 2 mps 647 mmHg 67%
    05:00 -2°C° 0 mm 2 mps 647 mmHg 68%
    06:00 -2°C° 0 mm 2 mps 647 mmHg 68%
    07:00 -1°C° 0 mm 2 mps 647 mmHg 68%
    08:00 -1°C° 0 mm 2 mps 648 mmHg 68%
    09:00 +1°C° 0 mm 2 mps 648 mmHg 68%
    10:00 +3°C° 0 mm 1 mps 648 mmHg 66%
    11:00 +4°C° 0 mm 1 mps 648 mmHg 65%
    12:00 +6°C° 0 mm 1 mps 648 mmHg 64%
    13:00 +6°C° 0 mm 1 mps 648 mmHg 64%
    14:00 +6°C° 0 mm 1 mps 648 mmHg 64%
    15:00 +6°C° 0 mm 1 mps 648 mmHg 64%
    16:00 +5°C° 0 mm 1 mps 648 mmHg 65%
    17:00 +2°C° 0 mm 2 mps 648 mmHg 66%
    18:00 +1°C° 0 mm 2 mps 647 mmHg 66%
    19:00 +1°C° 0 mm 2 mps 647 mmHg 65%
    20:00 0°C° 0 mm 3 mps 647 mmHg 63%
    21:00 0°C° 0 mm 3 mps 647 mmHg 61%
    22:00 -1°C° 0 mm 3 mps 646 mmHg 60%
    23:00 -1°C° 0 mm 3 mps 646 mmHg 60%
    Show more